Location: Martz Observatory
(42.0083°N, 79.0667°W)
Time: 04:04:33
(UTC-05:00)

Meteor 1-23 Rocket - Visible Passes

Search period start: 16 December 2017 00:00
Search period end: 26 December 2017 00:00
Orbit: 836 x 889 km, 81.3° (Epoch: 15 December)

Date Brightness Start Highest point End Pass type
(mag) Time Alt. Az. Time Alt. Az. Time Alt. Az.
16 Dec 6.1 04:21:18 16° NNE 04:24:32 25° ENE 04:29:04 10° SE visible
16 Dec 4.5 06:03:39 15° NNW 06:07:52 42° W 06:13:02 10° SSW visible
16 Dec 5.0 17:31:23 10° SSE 17:36:24 32° E 17:41:23 10° NNE visible
16 Dec 5.7 19:14:17 10° SW 19:19:29 34° WNW 19:24:40 10° N visible
17 Dec 6.1 04:14:09 21° NE 04:16:10 25° ENE 04:20:41 10° SE visible
17 Dec 4.5 05:56:30 23° NW 05:59:31 42° W 06:04:41 10° SSW visible
17 Dec 5.0 17:23:03 10° SSE 17:28:03 32° E 17:33:01 10° NNE visible
17 Dec 5.7 19:05:56 10° SW 19:11:08 35° WNW 19:16:18 10° N visible
18 Dec 6.1 04:07:03 24° ENE 04:07:48 25° ENE 04:12:17 10° ESE visible
18 Dec 4.5 05:49:24 33° NW 05:51:09 43° W 05:56:20 10° SSW visible
18 Dec 5.0 17:14:43 10° SSE 17:19:42 31° E 17:24:38 10° NNE visible
18 Dec 5.7 18:57:33 10° SW 19:02:45 35° WNW 19:07:57 10° N visible
19 Dec 6.2 03:59:58 24° ENE 03:59:58 24° ENE 04:03:53 10° ESE visible
19 Dec 4.4 05:42:19 43° W 05:42:47 43° W 05:47:59 10° SSW visible
19 Dec 5.7 18:49:11 10° SW 18:54:24 35° WNW 18:59:36 10° N visible
20 Dec 6.4 03:52:55 20° E 03:52:55 20° E 03:55:29 10° ESE visible
20 Dec 4.6 05:35:16 41° WSW 05:35:16 41° WSW 05:39:39 10° SSW visible
20 Dec 5.7 18:40:49 10° SW 18:46:02 36° WNW 18:51:14 10° N visible
21 Dec 6.7 03:45:51 15° ESE 03:45:51 15° ESE 03:47:06 10° ESE visible
21 Dec 5.2 05:28:13 30° SW 05:28:13 30° SW 05:31:18 10° SSW visible
21 Dec 5.7 18:32:27 10° SW 18:37:41 36° WNW 18:42:53 10° N visible
22 Dec 5.8 05:21:07 21° SSW 05:21:07 21° SSW 05:22:57 10° SSW visible
22 Dec 5.7 18:24:05 10° SW 18:29:19 37° WNW 18:34:31 10° N visible
23 Dec 6.3 05:14:01 13° SSW 05:14:01 13° SSW 05:14:36 10° SSW visible
23 Dec 5.7 18:15:42 10° SW 18:20:57 37° WNW 18:26:10 10° N visible
24 Dec 5.7 18:07:21 10° SW 18:12:35 37° WNW 18:17:48 10° N visible
25 Dec 5.7 17:58:58 10° SW 18:04:13 38° WNW 18:09:27 10° N visible
